| time (UTC) | temp F | wind direction | speed MPH | gust MPH | rain 1hr in | rain 24hr in | rain mn in | humidity % | barometer mb |
| 20260507122406 | 51 | 165 | 0.0 | 0.0 | 0.00 | 0.00 | 0.00 | 94 | 1015.8 |
| 20260507121903 | 51 | 204 | 0.0 | 0.0 | 0.00 | 0.00 | 0.00 | 94 | 1015.9 |
| 20260507121358 | 51 | 143 | 0.0 | 0.0 | 0.00 | 0.00 | 0.00 | 93 | 1015.8 |
| 20260507120855 | 51 | 144 | 0.0 | 0.0 | 0.00 | 0.00 | 0.00 | 93 | 1015.9 |
| 20260507120352 | 51 | 143 | 0.0 | 0.0 | 0.00 | 0.00 | 0.00 | 93 | 1015.6 |
| 20260507115848 | 52 | 101 | 0.0 | 0.0 | 0.00 | 0.00 | 0.00 | 93 | 1015.7 |
| 20260507115343 | 52 | 195 | 0.0 | 0.0 | 0.00 | 0.00 | 0.00 | 93 | 1015.8 |
| 20260507114839 | 52 | 195 | 0.0 | 0.0 | 0.00 | 0.00 | 0.00 | 93 | 1015.6 |
| 20260507114337 | 52 | 196 | 0.0 | 0.0 | 0.00 | 0.00 | 0.00 | 93 | 1015.8 |
| 20260507113834 | 53 | 196 | 0.0 | 0.0 | 0.00 | 0.00 | 0.00 | 92 | 1015.8 |
| 20260507113331 | 53 | 116 | 0.0 | 0.0 | 0.00 | 0.00 | 0.00 | 92 | 1015.9 |
| 20260507112829 | 53 | 173 | 0.0 | 0.0 | 0.00 | 0.00 | 0.00 | 92 | 1015.9 |
| 20260507112325 | 53 | 173 | 0.0 | 0.0 | 0.00 | 0.00 | 0.00 | 92 | 1016.0 |
| 20260507111823 | 53 | 201 | 0.0 | 0.0 | 0.00 | 0.00 | 0.00 | 92 | 1016.2 |
| 20260507111320 | 53 | 201 | 0.0 | 0.0 | 0.00 | 0.00 | 0.00 | 92 | 1016.1 |
| 20260507110816 | 53 | 3 | 0.0 | 0.0 | 0.00 | 0.00 | 0.00 | 92 | 1016.2 |
| 20260507110312 | 54 | 40 | 0.0 | 0.0 | 0.00 | 0.00 | 0.00 | 92 | 1016.1 |
| 20260507105809 | 54 | 69 | 0.0 | 0.0 | 0.00 | 0.00 | 0.00 | 92 | 1016.1 |
| 20260507105307 | 54 | 70 | 0.0 | 0.0 | 0.00 | 0.00 | 0.00 | 92 | 1016.2 |
| 20260507104803 | 54 | 211 | 0.0 | 0.0 | 0.00 | 0.00 | 0.00 | 92 | 1016.2 |
| 20260507104259 | 54 | 21 | 0.0 | 0.0 | 0.00 | 0.00 | 0.00 | 92 | 1016.1 |
| 20260507103755 | 53 | 289 | 0.0 | 0.0 | 0.00 | 0.00 | 0.00 | 92 | 1016.2 |
| 20260507103251 | 54 | 83 | 0.0 | 0.0 | 0.00 | 0.00 | 0.00 | 92 | 1016.2 |
| 20260507102748 | 54 | 69 | 0.0 | 0.0 | 0.00 | 0.00 | 0.00 | 92 | 1016.5 |
| 20260507102245 | 54 | 26 | 0.0 | 0.0 | 0.00 | 0.00 | 0.00 | 92 | 1016.3 |
| 20260507101741 | 54 | 35 | 0.0 | 0.0 | 0.00 | 0.00 | 0.00 | 92 | 1016.2 |
| 20260507101236 | 54 | 68 | 0.0 | 0.0 | 0.00 | 0.00 | 0.00 | 92 | 1016.4 |
| 20260507100734 | 54 | 143 | 0.0 | 0.0 | 0.00 | 0.00 | 0.00 | 92 | 1016.5 |
| 20260507100232 | 54 | 152 | 0.0 | 0.0 | 0.00 | 0.00 | 0.00 | 92 | 1016.5 |
| 20260507095730 | 54 | 222 | 0.0 | 0.0 | 0.00 | 0.00 | 0.00 | 92 | 1016.5 |
| 20260507095226 | 54 | 217 | 0.0 | 0.0 | 0.00 | 0.00 | 0.00 | 91 | 1016.5 |
| 20260507094723 | 54 | 236 | 0.0 | 0.0 | 0.00 | 0.00 | 0.00 | 91 | 1016.3 |
| 20260507094220 | 54 | 190 | 0.0 | 0.0 | 0.00 | 0.00 | 0.00 | 90 | 1016.6 |
| 20260507093717 | 55 | 191 | 0.0 | 0.0 | 0.00 | 0.00 | 0.00 | 90 | 1016.7 |
| 20260507093215 | 55 | 94 | 0.0 | 0.0 | 0.00 | 0.00 | 0.00 | 89 | 1016.5 |
| 20260507092712 | 55 | 87 | 0.0 | 0.0 | 0.00 | 0.00 | 0.00 | 90 | 1016.6 |
| 20260507092208 | 56 | 320 | 0.0 | 1.0 | 0.00 | 0.00 | 0.00 | 90 | 1016.5 |
| 20260507091705 | 56 | 10 | 0.0 | 1.0 | 0.00 | 0.00 | 0.00 | 90 | 1016.6 |
| 20260507091201 | 56 | 313 | 0.0 | 1.0 | 0.00 | 0.00 | 0.00 | 91 | 1016.7 |
| 20260507090657 | 56 | 344 | 0.0 | 1.0 | 0.00 | 0.00 | 0.00 | 91 | 1016.7 |
| 20260507090154 | 56 | 6 | 1.0 | 1.0 | 0.00 | 0.00 | 0.00 | 91 | 1016.8 |
| 20260507085651 | 56 | 335 | 1.0 | 1.0 | 0.00 | 0.00 | 0.00 | 92 | 1016.7 |
| 20260507085148 | 56 | 324 | 0.0 | 0.0 | 0.00 | 0.00 | 0.00 | 92 | 1016.9 |
| 20260507084645 | 56 | 325 | 0.0 | 1.0 | 0.00 | 0.00 | 0.00 | 92 | 1016.8 |
| 20260507084141 | 56 | 260 | 0.0 | 0.0 | 0.00 | 0.00 | 0.00 | 92 | 1016.9 |
| 20260507083638 | 55 | 239 | 0.0 | 1.0 | 0.00 | 0.00 | 0.00 | 92 | 1017.1 |
| 20260507083135 | 55 | 238 | 0.0 | 0.0 | 0.00 | 0.00 | 0.00 | 91 | 1017.0 |
| 20260507082631 | 55 | 238 | 0.0 | 0.0 | 0.00 | 0.00 | 0.00 | 91 | 1017.1 |
| 20260507082127 | 55 | 237 | 0.0 | 0.0 | 0.00 | 0.00 | 0.00 | 91 | 1017.0 |
| 20260507081624 | 55 | 240 | 0.0 | 0.0 | 0.00 | 0.00 | 0.00 | 91 | 1017.2 |
| 20260507081121 | 56 | 168 | 0.0 | 0.0 | 0.00 | 0.00 | 0.00 | 90 | 1017.0 |
| 20260507080617 | 56 | 127 | 0.0 | 0.0 | 0.00 | 0.00 | 0.00 | 90 | 1017.3 |
| 20260507080114 | 56 | 67 | 0.0 | 0.0 | 0.00 | 0.00 | 0.00 | 90 | 1017.0 |
| 20260507075614 | 56 | 25 | 1.0 | 1.0 | 0.00 | 0.00 | 0.00 | 90 | 1017.3 |
| 20260507075111 | 56 | 69 | 0.0 | 1.0 | 0.00 | 0.00 | 0.00 | 90 | 1017.2 |
| 20260507074608 | 57 | 114 | 0.0 | 1.0 | 0.00 | 0.00 | 0.00 | 89 | 1017.3 |
| 20260507074106 | 57 | 31 | 1.0 | 2.0 | 0.00 | 0.00 | 0.00 | 89 | 1017.1 |
| 20260507073602 | 57 | 58 | 0.0 | 0.0 | 0.00 | 0.00 | 0.00 | 89 | 1017.3 |
| 20260507073058 | 57 | 126 | 0.0 | 0.0 | 0.00 | 0.00 | 0.00 | 89 | 1017.4 |
| 20260507072556 | 57 | 121 | 0.0 | 0.0 | 0.00 | 0.00 | 0.00 | 89 | 1017.4 |
| 20260507072053 | 57 | 70 | 0.0 | 1.0 | 0.00 | 0.00 | 0.00 | 89 | 1017.4 |
| 20260507071550 | 57 | 23 | 0.0 | 0.0 | 0.00 | 0.00 | 0.00 | 89 | 1017.6 |
| 20260507071047 | 57 | 97 | 0.0 | 0.0 | 0.00 | 0.00 | 0.00 | 89 | 1017.5 |
| 20260507070544 | 57 | 141 | 0.0 | 0.0 | 0.00 | 0.00 | 0.00 | 89 | 1017.5 |
| 20260507070041 | 57 | 43 | 0.0 | 0.0 | 0.00 | 0.00 | 0.00 | 89 | 1017.5 |
| 20260507065537 | 57 | 34 | 1.0 | 1.0 | 0.00 | 0.00 | 0.00 | 89 | 1017.5 |
| 20260507065034 | 57 | 40 | 1.0 | 2.0 | 0.00 | 0.00 | 0.00 | 89 | 1017.4 |
| 20260507064532 | 57 | 92 | 0.0 | 1.0 | 0.00 | 0.00 | 0.00 | 89 | 1017.5 |
| 20260507064031 | 57 | 57 | 2.0 | 2.0 | 0.00 | 0.00 | 0.00 | 89 | 1017.5 |
| 20260507063527 | 57 | 31 | 1.0 | 2.0 | 0.00 | 0.00 | 0.00 | 89 | 1017.4 |
| 20260507063025 | 57 | 82 | 0.0 | 1.0 | 0.00 | 0.00 | 0.00 | 89 | 1017.2 |
| 20260507062521 | 58 | 49 | 1.0 | 1.0 | 0.00 | 0.00 | 0.00 | 89 | 1017.4 |
| 20260507062019 | 57 | 50 | 1.0 | 2.0 | 0.00 | 0.00 | 0.00 | 89 | 1017.4 |
| 20260507061517 | 57 | 47 | 1.0 | 1.0 | 0.00 | 0.00 | 0.00 | 88 | 1017.3 |
| 20260507061014 | 57 | 68 | 0.0 | 1.0 | 0.00 | 0.00 | 0.00 | 88 | 1017.5 |
| 20260507060512 | 57 | 75 | 0.0 | 1.0 | 0.00 | 0.00 | 0.00 | 88 | 1017.3 |
| 20260507060009 | 57 | 86 | 0.0 | 1.0 | 0.00 | 0.00 | 0.00 | 88 | 1017.6 |
| 20260507055503 | 57 | 73 | 0.0 | 1.0 | 0.00 | 0.00 | 0.00 | 88 | 1017.5 |
| 20260507055000 | 57 | 61 | 0.0 | 1.0 | 0.00 | 0.00 | 0.00 | 88 | 1017.5 |
| 20260507054456 | 57 | 105 | 0.0 | 1.0 | 0.00 | 0.00 | 0.00 | 89 | 1017.5 |
| 20260507053953 | 57 | 49 | 1.0 | 1.0 | 0.00 | 0.00 | 0.00 | 88 | 1017.5 |
| 20260507053451 | 57 | 52 | 0.0 | 1.0 | 0.00 | 0.00 | 0.00 | 88 | 1017.4 |
| 20260507052949 | 57 | 68 | 0.0 | 1.0 | 0.00 | 0.00 | 0.00 | 88 | 1017.7 |
| 20260507052447 | 57 | 38 | 1.0 | 2.0 | 0.00 | 0.00 | 0.00 | 88 | 1017.7 |
| 20260507051943 | 57 | 93 | 0.0 | 0.0 | 0.00 | 0.00 | 0.00 | 87 | 1017.6 |
| 20260507051441 | 58 | 90 | 0.0 | 0.0 | 0.00 | 0.00 | 0.00 | 87 | 1017.5 |
| 20260507050938 | 58 | 90 | 0.0 | 1.0 | 0.00 | 0.00 | 0.00 | 87 | 1017.5 |
| 20260507050434 | 58 | 90 | 0.0 | 0.0 | 0.00 | 0.00 | 0.00 | 87 | 1017.4 |
| 20260507045931 | 58 | 82 | 0.0 | 0.0 | 0.00 | 0.00 | 0.00 | 87 | 1017.3 |
| 20260507045428 | 58 | 80 | 0.0 | 0.0 | 0.00 | 0.00 | 0.00 | 86 | 1017.2 |
| 20260507044925 | 58 | 88 | 1.0 | 1.0 | 0.00 | 0.00 | 0.00 | 86 | 1017.2 |
| 20260507044422 | 58 | 98 | 0.0 | 1.0 | 0.00 | 0.00 | 0.00 | 86 | 1017.4 |
| 20260507043918 | 58 | 105 | 0.0 | 0.0 | 0.00 | 0.00 | 0.00 | 86 | 1017.3 |
| 20260507043414 | 59 | 102 | 0.0 | 0.0 | 0.00 | 0.00 | 0.00 | 85 | 1017.4 |
| 20260507042910 | 59 | 101 | 0.0 | 1.0 | 0.00 | 0.00 | 0.00 | 85 | 1017.4 |
| 20260507042407 | 59 | 222 | 0.0 | 0.0 | 0.00 | 0.00 | 0.00 | 85 | 1017.2 |
| 20260507041903 | 59 | 226 | 0.0 | 0.0 | 0.00 | 0.00 | 0.00 | 84 | 1017.5 |
| 20260507041400 | 59 | 236 | 0.0 | 0.0 | 0.00 | 0.00 | 0.00 | 84 | 1017.5 |
| 20260507040857 | 59 | 237 | 0.0 | 1.0 | 0.00 | 0.00 | 0.00 | 84 | 1017.3 |
| 20260507040353 | 59 | 226 | 0.0 | 0.0 | 0.00 | 0.00 | 0.00 | 84 | 1017.3 |
| 20260507035849 | 59 | 228 | 0.0 | 0.0 | 0.00 | 0.00 | 0.00 | 84 | 1017.2 |
| 20260507035345 | 59 | 240 | 1.0 | 1.0 | 0.00 | 0.00 | 0.00 | 83 | 1017.3 |
| 20260507034843 | 59 | 169 | 0.0 | 0.0 | 0.00 | 0.00 | 0.00 | 83 | 1017.0 |
| 20260507034339 | 59 | 113 | 0.0 | 0.0 | 0.00 | 0.00 | 0.00 | 83 | 1017.1 |
| 20260507033837 | 60 | 100 | 0.0 | 0.0 | 0.00 | 0.00 | 0.00 | 82 | 1016.9 |
| 20260507033335 | 60 | 175 | 0.0 | 1.0 | 0.00 | 0.00 | 0.00 | 82 | 1016.9 |
| 20260507032832 | 60 | 206 | 0.0 | 1.0 | 0.00 | 0.00 | 0.00 | 82 | 1016.8 |
| 20260507032328 | 60 | 341 | 1.0 | 1.0 | 0.00 | 0.00 | 0.00 | 81 | 1017.0 |
| 20260507031824 | 60 | 347 | 0.0 | 1.0 | 0.00 | 0.00 | 0.00 | 81 | 1016.9 |
| 20260507031321 | 60 | 216 | 0.0 | 1.0 | 0.00 | 0.00 | 0.00 | 81 | 1016.9 |
| 20260507030818 | 60 | 254 | 0.0 | 1.0 | 0.00 | 0.00 | 0.00 | 80 | 1016.8 |
| 20260507030316 | 61 | 231 | 0.0 | 1.0 | 0.00 | 0.00 | 0.00 | 80 | 1016.8 |
| 20260507025812 | 61 | 218 | 0.0 | 2.0 | 0.00 | 0.00 | 0.00 | 81 | 1016.7 |
| 20260507025309 | 61 | 221 | 1.0 | 1.0 | 0.00 | 0.00 | 0.00 | 81 | 1016.5 |
| 20260507024808 | 61 | 246 | 0.0 | 2.0 | 0.00 | 0.00 | 0.00 | 80 | 1016.5 |
| 20260507024304 | 62 | 277 | 2.0 | 3.0 | 0.00 | 0.00 | 0.00 | 79 | 1016.5 |
| 20260507023800 | 62 | 220 | 1.0 | 1.0 | 0.00 | 0.00 | 0.00 | 78 | 1016.7 |
| 20260507023257 | 62 | 211 | 0.0 | 1.0 | 0.00 | 0.00 | 0.00 | 78 | 1016.5 |
| 20260507022754 | 63 | 300 | 1.0 | 2.0 | 0.00 | 0.00 | 0.00 | 77 | 1016.5 |
| 20260507022250 | 63 | 223 | 0.0 | 1.0 | 0.00 | 0.00 | 0.00 | 76 | 1016.3 |
| 20260507021747 | 63 | 242 | 3.0 | 3.0 | 0.00 | 0.00 | 0.00 | 74 | 1016.3 |
| 20260507021242 | 64 | 257 | 1.0 | 2.0 | 0.00 | 0.00 | 0.00 | 74 | 1016.3 |
| 20260507020741 | 64 | 257 | 1.0 | 2.0 | 0.00 | 0.00 | 0.00 | 71 | 1016.3 |
| 20260507020237 | 65 | 227 | 2.0 | 3.0 | 0.00 | 0.00 | 0.00 | 69 | 1016.3 |
| 20260507015735 | 65 | 204 | 1.0 | 4.0 | 0.00 | 0.00 | 0.00 | 67 | 1016.2 |
| 20260507015232 | 66 | 232 | 2.0 | 3.0 | 0.00 | 0.00 | 0.00 | 65 | 1016.2 |
| 20260507014728 | 66 | 249 | 2.0 | 4.0 | 0.00 | 0.00 | 0.00 | 63 | 1016.3 |
| 20260507014225 | 66 | 323 | 2.0 | 2.0 | 0.00 | 0.00 | 0.00 | 63 | 1016.1 |
| 20260507013721 | 67 | 237 | 2.0 | 3.0 | 0.00 | 0.00 | 0.00 | 62 | 1015.9 |
| 20260507013219 | 66 | 224 | 1.0 | 4.0 | 0.00 | 0.00 | 0.00 | 61 | 1016.0 |
| 20260507012716 | 67 | 253 | 3.0 | 7.0 | 0.00 | 0.00 | 0.00 | 59 | 1015.9 |
| 20260507012216 | 67 | 235 | 2.0 | 4.0 | 0.00 | 0.00 | 0.00 | 58 | 1016.1 |
| 20260507011714 | 68 | 233 | 3.0 | 4.0 | 0.00 | 0.00 | 0.00 | 57 | 1016.0 |
| 20260507011211 | 67 | 205 | 2.0 | 4.0 | 0.00 | 0.00 | 0.00 | 59 | 1015.9 |
| 20260507010710 | 68 | 233 | 2.0 | 4.0 | 0.00 | 0.00 | 0.00 | 58 | 1016.0 |
| 20260507010207 | 68 | 248 | 4.0 | 4.0 | 0.00 | 0.00 | 0.00 | 59 | 1015.8 |
| 20260507005704 | 69 | 244 | 2.0 | 7.0 | 0.00 | 0.00 | 0.00 | 58 | 1015.8 |
| 20260507005200 | 69 | 258 | 2.0 | 4.0 | 0.00 | 0.00 | 0.00 | 59 | 1015.9 |
| 20260507004657 | 69 | 242 | 4.0 | 9.0 | 0.00 | 0.00 | 0.00 | 59 | 1015.8 |
| 20260507004155 | 69 | 234 | 5.0 | 7.0 | 0.00 | 0.00 | 0.00 | 59 | 1015.8 |
| 20260507003651 | 69 | 254 | 5.0 | 7.0 | 0.00 | 0.00 | 0.00 | 60 | 1015.6 |
| 20260507003151 | 71 | 311 | 2.0 | 4.0 | 0.00 | 0.00 | 0.00 | 59 | 1015.8 |
| 20260507002648 | 70 | 248 | 2.0 | 4.0 | 0.00 | 0.00 | 0.00 | 59 | 1015.6 |
| 20260507002143 | 71 | 230 | 3.0 | 6.0 | 0.00 | 0.00 | 0.00 | 58 | 1015.7 |
| 20260507001640 | 71 | 256 | 6.0 | 7.0 | 0.00 | 0.00 | 0.00 | 59 | 1015.7 |
| 20260507001138 | 72 | 187 | 3.0 | 7.0 | 0.00 | 0.00 | 0.00 | 57 | 1015.7 |
| 20260507000634 | 72 | 286 | 2.0 | 6.0 | 0.00 | 0.00 | 0.00 | 58 | 1015.5 |
| 20260507000130 | 72 | 244 | 1.0 | 7.0 | 0.00 | 0.00 | 0.00 | 56 | 1015.4 |
| 20260506235627 | 74 | 272 | 3.0 | 7.0 | 0.00 | 0.00 | 0.00 | 53 | 1015.4 |
| 20260506235127 | 73 | 218 | 3.0 | 7.0 | 0.00 | 0.00 | 0.00 | 55 | 1015.3 |
| 20260506234625 | 74 | 187 | 3.0 | 4.0 | 0.00 | 0.00 | 0.00 | 53 | 1015.4 |
| 20260506234122 | 73 | 223 | 1.0 | 6.0 | 0.00 | 0.00 | 0.00 | 55 | 1015.3 |
| 20260506233619 | 73 | 193 | 3.0 | 4.0 | 0.00 | 0.00 | 0.00 | 55 | 1015.3 |
| 20260506233116 | 74 | 236 | 3.0 | 7.0 | 0.00 | 0.00 | 0.00 | 54 | 1015.4 |
| 20260506232612 | 73 | 311 | 2.0 | 6.0 | 0.00 | 0.00 | 0.00 | 54 | 1015.3 |
| 20260506232107 | 73 | 297 | 3.0 | 7.0 | 0.00 | 0.00 | 0.00 | 56 | 1015.4 |
| 20260506231605 | 74 | 262 | 4.0 | 4.0 | 0.00 | 0.00 | 0.00 | 53 | 1015.4 |
| 20260506231103 | 74 | 210 | 4.0 | 8.0 | 0.00 | 0.00 | 0.00 | 54 | 1015.5 |
| 20260506230559 | 75 | 237 | 2.0 | 4.0 | 0.00 | 0.00 | 0.00 | 52 | 1015.3 |
| 20260506230056 | 74 | 248 | 1.0 | 10.0 | 0.00 | 0.00 | 0.00 | 53 | 1015.6 |
| 20260506225553 | 74 | 285 | 4.0 | 6.0 | 0.00 | 0.00 | 0.00 | 53 | 1015.5 |
| 20260506225049 | 73 | 274 | 4.0 | 7.0 | 0.00 | 0.00 | 0.00 | 55 | 1015.5 |
| 20260506224547 | 75 | 339 | 4.0 | 6.0 | 0.00 | 0.00 | 0.00 | 52 | 1015.7 |
| 20260506224043 | 75 | 303 | 3.0 | 6.0 | 0.00 | 0.00 | 0.00 | 53 | 1015.6 |
| 20260506223539 | 75 | 263 | 4.0 | 6.0 | 0.00 | 0.00 | 0.00 | 56 | 1015.8 |
| 20260506223036 | 76 | 262 | 2.0 | 4.0 | 0.00 | 0.00 | 0.00 | 53 | 1015.9 |
| 20260506222533 | 74 | 202 | 3.0 | 4.0 | 0.00 | 0.00 | 0.00 | 56 | 1015.8 |
| 20260506222029 | 75 | 211 | 4.0 | 6.0 | 0.00 | 0.00 | 0.00 | 55 | 1015.8 |
| 20260506221526 | 74 | 323 | 3.0 | 4.0 | 0.00 | 0.00 | 0.00 | 54 | 1015.9 |
| 20260506221024 | 74 | 273 | 3.0 | 4.0 | 0.00 | 0.00 | 0.00 | 56 | 1016.0 |
| 20260506220520 | 74 | 228 | 4.0 | 6.0 | 0.00 | 0.00 | 0.00 | 55 | 1016.2 |
| 20260506220016 | 74 | 271 | 3.0 | 8.0 | 0.00 | 0.00 | 0.00 | 55 | 1015.9 |
| 20260506215513 | 74 | 235 | 2.0 | 8.0 | 0.00 | 0.00 | 0.00 | 58 | 1016.0 |
| 20260506215009 | 74 | 248 | 4.0 | 6.0 | 0.00 | 0.00 | 0.00 | 56 | 1015.9 |
| 20260506214506 | 75 | 249 | 2.0 | 4.0 | 0.00 | 0.00 | 0.00 | 54 | 1016.1 |
| 20260506214003 | 75 | 262 | 2.0 | 8.0 | 0.00 | 0.00 | 0.00 | 55 | 1016.1 |
| 20260506213501 | 75 | 250 | 4.0 | 6.0 | 0.00 | 0.00 | 0.00 | 55 | 1016.1 |
| 20260506212958 | 75 | 165 | 2.0 | 8.0 | 0.00 | 0.00 | 0.00 | 57 | 1016.3 |
| 20260506212454 | 76 | 218 | 4.0 | 8.0 | 0.00 | 0.00 | 0.00 | 54 | 1016.3 |
| 20260506211949 | 76 | 242 | 2.0 | 6.0 | 0.00 | 0.00 | 0.00 | 54 | 1016.5 |
| 20260506211445 | 74 | 234 | 4.0 | 6.0 | 0.00 | 0.00 | 0.00 | 56 | 1016.0 |
| 20260506210942 | 75 | 274 | 5.0 | 7.0 | 0.00 | 0.00 | 0.00 | 54 | 1016.5 |
| 20260506210438 | 74 | 278 | 2.0 | 6.0 | 0.00 | 0.00 | 0.00 | 56 | 1016.2 |
| 20260506205936 | 76 | 212 | 3.0 | 7.0 | 0.00 | 0.00 | 0.00 | 53 | 1016.2 |
| 20260506205432 | 76 | 254 | 2.0 | 7.0 | 0.00 | 0.00 | 0.00 | 55 | 1016.4 |
| 20260506204928 | 74 | 335 | 1.0 | 8.0 | 0.00 | 0.00 | 0.00 | 56 | 1016.6 |
| 20260506204426 | 75 | 264 | 2.0 | 9.0 | 0.00 | 0.00 | 0.00 | 55 | 1016.5 |
| 20260506203923 | 73 | 173 | 5.0 | 11.0 | 0.00 | 0.00 | 0.00 | 57 | 1016.6 |
| 20260506203420 | 74 | 279 | 2.0 | 8.0 | 0.00 | 0.00 | 0.00 | 55 | 1016.6 |
| 20260506202917 | 75 | 260 | 3.0 | 8.0 | 0.00 | 0.00 | 0.00 | 55 | 1016.5 |
| 20260506202414 | 73 | 269 | 2.0 | 7.0 | 0.00 | 0.00 | 0.00 | 56 | 1016.4 |
| 20260506201911 | 74 | 257 | 3.0 | 7.0 | 0.00 | 0.00 | 0.00 | 55 | 1016.7 |
| 20260506201409 | 76 | 204 | 2.0 | 4.0 | 0.00 | 0.00 | 0.00 | 52 | 1016.7 |
| 20260506200905 | 74 | 238 | 3.0 | 4.0 | 0.00 | 0.00 | 0.00 | 54 | 1016.7 |
| 20260506200401 | 74 | 252 | 5.0 | 7.0 | 0.00 | 0.00 | 0.00 | 55 | 1016.9 |
| 20260506195857 | 75 | 202 | 6.0 | 8.0 | 0.00 | 0.00 | 0.00 | 54 | 1016.7 |
| 20260506195355 | 74 | 229 | 4.0 | 7.0 | 0.00 | 0.00 | 0.00 | 55 | 1016.9 |
| 20260506194851 | 74 | 261 | 2.0 | 8.0 | 0.00 | 0.00 | 0.00 | 54 | 1017.1 |
| 20260506194348 | 74 | 254 | 4.0 | 8.0 | 0.00 | 0.00 | 0.00 | 54 | 1016.9 |
| 20260506193846 | 74 | 298 | 2.0 | 9.0 | 0.00 | 0.00 | 0.00 | 56 | 1017.0 |
| 20260506193342 | 75 | 241 | 3.0 | 7.0 | 0.00 | 0.00 | 0.00 | 54 | 1017.1 |
| 20260506192839 | 75 | 284 | 2.0 | 7.0 | 0.00 | 0.00 | 0.00 | 53 | 1017.1 |
| 20260506192336 | 75 | 250 | 3.0 | 8.0 | 0.00 | 0.00 | 0.00 | 55 | 1017.1 |
| 20260506191833 | 74 | 273 | 3.0 | 7.0 | 0.00 | 0.00 | 0.00 | 54 | 1017.3 |
| 20260506191329 | 73 | 287 | 3.0 | 7.0 | 0.00 | 0.00 | 0.00 | 54 | 1017.3 |
| 20260506190826 | 74 | 184 | 5.0 | 6.0 | 0.00 | 0.00 | 0.00 | 52 | 1017.3 |
| 20260506190322 | 73 | 258 | 4.0 | 8.0 | 0.00 | 0.00 | 0.00 | 51 | 1017.3 |
| 20260506185819 | 74 | 238 | 3.0 | 4.0 | 0.00 | 0.00 | 0.00 | 47 | 1017.5 |
| 20260506185316 | 73 | 208 | 4.0 | 4.0 | 0.00 | 0.00 | 0.00 | 48 | 1017.4 |
| 20260506184813 | 74 | 245 | 2.0 | 4.0 | 0.00 | 0.00 | 0.00 | 50 | 1017.5 |
| 20260506184311 | 74 | 292 | 1.0 | 2.0 | 0.00 | 0.00 | 0.00 | 48 | 1017.5 |
| 20260506183808 | 73 | 306 | 1.0 | 2.0 | 0.00 | 0.00 | 0.00 | 51 | 1017.7 |
| 20260506183303 | 73 | 254 | 1.0 | 3.0 | 0.00 | 0.00 | 0.00 | 49 | 1017.7 |
| 20260506182800 | 72 | 184 | 1.0 | 2.0 | 0.00 | 0.00 | 0.00 | 51 | 1017.8 |
| 20260506182257 | 71 | 220 | 2.0 | 3.0 | 0.00 | 0.00 | 0.00 | 54 | 1017.8 |
| 20260506181755 | 69 | 201 | 4.0 | 6.0 | 0.00 | 0.00 | 0.00 | 55 | 1017.8 |
| 20260506181253 | 69 | 241 | 4.0 | 6.0 | 0.00 | 0.00 | 0.00 | 55 | 1017.9 |
| 20260506180749 | 73 | 243 | 4.0 | 6.0 | 0.00 | 0.00 | 0.00 | 51 | 1018.1 |
| 20260506180245 | 71 | 250 | 1.0 | 3.0 | 0.00 | 0.00 | 0.00 | 54 | 1017.9 |
| 20260506175742 | 71 | 257 | 2.0 | 3.0 | 0.00 | 0.00 | 0.00 | 55 | 1018.1 |
| 20260506175239 | 71 | 281 | 2.0 | 3.0 | 0.00 | 0.00 | 0.00 | 55 | 1018.1 |
| 20260506174737 | 71 | 240 | 0.0 | 3.0 | 0.00 | 0.00 | 0.00 | 55 | 1018.1 |
| 20260506174233 | 68 | 104 | 1.0 | 2.0 | 0.00 | 0.00 | 0.00 | 57 | 1018.3 |
| 20260506173731 | 69 | 196 | 2.0 | 3.0 | 0.00 | 0.00 | 0.00 | 57 | 1018.3 |
| 20260506173227 | 70 | 214 | 2.0 | 3.0 | 0.00 | 0.00 | 0.00 | 54 | 1018.2 |
| 20260506172724 | 69 | 109 | 1.0 | 3.0 | 0.00 | 0.00 | 0.00 | 55 | 1018.3 |
| 20260506172221 | 69 | 194 | 1.0 | 2.0 | 0.00 | 0.00 | 0.00 | 55 | 1018.3 |
| 20260506171719 | 68 | 75 | 1.0 | 1.0 | 0.00 | 0.00 | 0.00 | 56 | 1018.2 |
| 20260506171216 | 69 | 157 | 1.0 | 3.0 | 0.00 | 0.00 | 0.00 | 56 | 1018.4 |
| 20260506170713 | 69 | 26 | 0.0 | 2.0 | 0.00 | 0.00 | 0.00 | 57 | 1018.4 |
| 20260506170210 | 69 | 72 | 1.0 | 2.0 | 0.00 | 0.00 | 0.00 | 57 | 1018.3 |
| 20260506165708 | 66 | 227 | 1.0 | 1.0 | 0.00 | 0.00 | 0.00 | 60 | 1018.4 |
| 20260506165204 | 67 | 333 | 2.0 | 3.0 | 0.00 | 0.00 | 0.00 | 59 | 1018.4 |
| 20260506164702 | 65 | 156 | 0.0 | 2.0 | 0.00 | 0.00 | 0.00 | 63 | 1018.4 |
| 20260506164159 | 66 | 223 | 2.0 | 2.0 | 0.00 | 0.00 | 0.00 | 61 | 1018.5 |
| 20260506163655 | 64 | 71 | 1.0 | 3.0 | 0.00 | 0.00 | 0.00 | 64 | 1018.4 |
| 20260506163150 | 65 | 212 | 2.0 | 3.0 | 0.00 | 0.00 | 0.00 | 63 | 1018.7 |
| 20260506162647 | 66 | 168 | 1.0 | 2.0 | 0.00 | 0.00 | 0.00 | 61 | 1018.6 |
| 20260506162144 | 65 | 79 | 2.0 | 2.0 | 0.00 | 0.00 | 0.00 | 63 | 1018.8 |
| 20260506161641 | 64 | 227 | 1.0 | 3.0 | 0.00 | 0.00 | 0.00 | 67 | 1018.5 |
| 20260506161138 | 64 | 40 | 1.0 | 4.0 | 0.00 | 0.00 | 0.00 | 65 | 1018.5 |
| 20260506160636 | 63 | 135 | 0.0 | 1.0 | 0.00 | 0.00 | 0.00 | 66 | 1018.5 |
| 20260506160132 | 64 | 135 | 1.0 | 3.0 | 0.00 | 0.00 | 0.00 | 68 | 1018.3 |
| 20260506155631 | 63 | 134 | 0.0 | 2.0 | 0.00 | 0.00 | 0.00 | 69 | 1018.5 |
| 20260506155128 | 62 | 134 | 1.0 | 2.0 | 0.00 | 0.00 | 0.00 | 70 | 1018.4 |
| 20260506153230 | 61 | 52 | 4.0 | 7.0 | 0.00 | 0.00 | 0.00 | 72 | 1018.5 |
| 20260506152727 | 62 | 130 | 2.0 | 3.0 | 0.00 | 0.00 | 0.00 | 73 | 1018.3 |
| 20260506152224 | 62 | 85 | 0.0 | 2.0 | 0.00 | 0.00 | 0.00 | 72 | 1018.5 |
| 20260506151724 | 62 | 84 | 0.0 | 2.0 | 0.00 | 0.00 | 0.00 | 72 | 1018.4 |
| 20260506151219 | 61 | 60 | 2.0 | 3.0 | 0.00 | 0.00 | 0.00 | 73 | 1018.4 |
| 20260506150716 | 60 | 81 | 1.0 | 3.0 | 0.00 | 0.00 | 0.00 | 76 | 1018.4 |
| 20260506150213 | 60 | 94 | 1.0 | 2.0 | 0.00 | 0.00 | 0.00 | 77 | 1018.7 |
| 20260506145710 | 59 | 94 | 0.0 | 2.0 | 0.00 | 0.00 | 0.00 | 77 | 1018.5 |
| 20260506145206 | 59 | 100 | 2.0 | 2.0 | 0.00 | 0.00 | 0.00 | 77 | 1018.5 |
| 20260506144704 | 58 | 89 | 0.0 | 2.0 | 0.00 | 0.00 | 0.00 | 79 | 1018.5 |
| 20260506144200 | 59 | 59 | 2.0 | 3.0 | 0.00 | 0.00 | 0.00 | 76 | 1018.4 |
| 20260506143658 | 59 | 112 | 0.0 | 2.0 | 0.00 | 0.00 | 0.00 | 77 | 1018.1 |
| 20260506143156 | 57 | 121 | 0.0 | 1.0 | 0.00 | 0.00 | 0.00 | 79 | 1018.4 |
| 20260506142654 | 57 | 119 | 0.0 | 1.0 | 0.00 | 0.00 | 0.00 | 80 | 1018.3 |
| 20260506142152 | 56 | 106 | 0.0 | 1.0 | 0.00 | 0.00 | 0.00 | 82 | 1018.3 |
| 20260506141649 | 55 | 108 | 1.0 | 1.0 | 0.00 | 0.00 | 0.00 | 84 | 1018.2 |
| 20260506141148 | 53 | 129 | 0.0 | 2.0 | 0.00 | 0.00 | 0.00 | 87 | 1018.2 |
| 20260506140644 | 53 | 59 | 1.0 | 2.0 | 0.00 | 0.00 | 0.00 | 88 | 1018.3 |
| 20260506140142 | 52 | 92 | 2.0 | 2.0 | 0.00 | 0.00 | 0.00 | 88 | 1018.2 |
| 20260506135639 | 52 | 144 | 0.0 | 3.0 | 0.00 | 0.00 | 0.00 | 90 | 1018.2 |
| 20260506135135 | 52 | 72 | 1.0 | 3.0 | 0.00 | 0.00 | 0.00 | 91 | 1018.2 |
| 20260506134632 | 51 | 122 | 0.0 | 3.0 | 0.00 | 0.00 | 0.00 | 93 | 1018.1 |
| 20260506134127 | 51 | 114 | 1.0 | 3.0 | 0.00 | 0.00 | 0.00 | 94 | 1018.1 |
| 20260506133625 | 51 | 115 | 0.0 | 2.0 | 0.00 | 0.00 | 0.00 | 94 | 1018.0 |
| 20260506133122 | 50 | 102 | 1.0 | 2.0 | 0.00 | 0.00 | 0.00 | 95 | 1017.9 |
| 20260506132619 | 50 | 152 | 0.0 | 1.0 | 0.00 | 0.00 | 0.00 | 95 | 1017.9 |
| 20260506132116 | 50 | 161 | 0.0 | 0.0 | 0.00 | 0.00 | 0.00 | 95 | 1017.8 |
| 20260506131613 | 50 | 159 | 0.0 | 0.0 | 0.00 | 0.00 | 0.00 | 95 | 1017.9 |
| 20260506131109 | 50 | 121 | 0.0 | 1.0 | 0.00 | 0.00 | 0.00 | 95 | 1017.7 |
| 20260506130607 | 50 | 103 | 1.0 | 1.0 | 0.00 | 0.00 | 0.00 | 95 | 1017.7 |
| 20260506130104 | 50 | 164 | 0.0 | 0.0 | 0.00 | 0.00 | 0.00 | 95 | 1017.7 |
| 20260506125602 | 50 | 165 | 0.0 | 0.0 | 0.00 | 0.00 | 0.00 | 95 | 1017.8 |
| 20260506125100 | 50 | 170 | 0.0 | 0.0 | 0.00 | 0.00 | 0.00 | 95 | 1017.7 |
| 20260506124557 | 50 | 171 | 0.0 | 0.0 | 0.00 | 0.00 | 0.00 | 95 | 1017.5 |
| 20260506124055 | 49 | 145 | 0.0 | 0.0 | 0.00 | 0.00 | 0.00 | 94 | 1017.5 |
| 20260506123552 | 50 | 166 | 0.0 | 0.0 | 0.00 | 0.00 | 0.00 | 94 | 1017.5 |
| 20260506123051 | 50 | 177 | 0.0 | 0.0 | 0.00 | 0.00 | 0.00 | 94 | 1017.5 |